Home > Weather > Ghent > Past weeks

Flag for Belgium Weather for the Past 2 Weeks in Ghent, Belgium

Now
75 °F

Mild.


Feels Like: 77 °F
Forecast: 53 / 76 °F
Wind: 5 mph from South

Location: Munte

Current Time: May 6, 2016 at 5:11:26 PM

Latest Report: May 6, 2016 at 4:00 PM


Visibility: 12 mi

Pressure: 29.84 "Hg

Humidity: 36%

Dew Point: 46 °F

Location of GhentLocation

Historic Weather in Ghent — Graph

°F

Ghent Temperature Yesterday

Maximum temperature yesterday: 67 °F (at 5:00 PM)
Minimum temperature yesterday: 43 °F (at 6:00 AM)
Average temperature yesterday: 56 °F

High & Low Weather Summary for the Past Weeks

 TemperatureHumidityPressure
High75 °F (May 6, 4:00 PM)96% (May 1, 7:00 AM)30.41 "Hg (May 1, 7:00 AM)
Low34 °F (Apr 28, 7:00 AM)29% (May 5, 2:00 PM)29.63 "Hg (Apr 26, 10:00 AM)
Average48 °F67%30.08 "Hg
* Reported Apr 21 4:00 PM — May 6 4:00 PM, Ghent, Weather by CustomWeather, © 2016

Note: Actual official high and low records may vary slightly from our data, if they occured in-between our weather recording intervals... More about our weather records

Advertising

Ghent Weather History for the Previous 24 Hours

Scroll right to see more
 ConditionsComfort  
Time TempWeatherWind HumidityBarometerVisibility
4:00 PM
Fri, May 6
75 °FMild.5 mph36%29.84 "Hg12 mi
3:00 PM73 °FMild.6 mph39%29.85 "Hg12 mi
2:00 PM71 °FMild.5 mph46%29.86 "Hg12 mi
1:00 PM70 °FMild.2 mph46%29.88 "Hg12 mi
12:00 PM67 °FMild.2 mph48%29.89 "Hg12 mi
11:00 AM65 °FMild.N/A55%29.90 "Hg11 mi
10:00 AM61 °FRefreshingly cool.2 mph56%29.92 "Hg12 mi
9:00 AM58 °FCool.2 mph65%29.93 "Hg12 mi
8:00 AM54 °FCool.2 mph68%29.95 "Hg12 mi
7:00 AM52 °FCool.2 mph69%29.95 "Hg12 mi
6:00 AM52 °FCool.3 mph69%29.96 "Hg12 mi
5:00 AM52 °FCool.2 mph68%29.98 "Hg12 mi
4:00 AM52 °FCool.N/A69%29.99 "Hg12 mi
3:00 AM52 °FCool.2 mph70%30.01 "Hg12 mi
2:00 AM54 °FCool.2 mph63%30.02 "Hg12 mi
1:00 AM57 °FRefreshingly cool.3 mph57%30.03 "Hg12 mi
12:00 AM56 °FRefreshingly cool.2 mph57%30.03 "Hg12 mi
11:00 PM
Thu, May 5
56 °FRefreshingly cool.2 mph53%30.05 "Hg12 mi
10:00 PM58 °FRefreshingly cool.2 mph47%30.05 "Hg12 mi
9:00 PM60 °FRefreshingly cool.2 mph44%30.05 "Hg12 mi
8:00 PM63 °FMild.3 mph39%30.06 "Hg12 mi
7:00 PM65 °FMild.3 mph32%30.08 "Hg12 mi
6:00 PM66 °FMild.5 mph29%30.09 "Hg12 mi
5:00 PM67 °FMild.3 mph32%30.11 "Hg12 mi
Weather by CustomWeather, © 2016

See weather overviewHow to use our weather pages